K7ZQU-7 Weather Reports


Display with metric or nautical units.
time (UTC)temp
F
wind
direction
speed
MPH
gust
MPH
rain 1hr
in
rain 24hr
in
rain mn
in
humidity
%
barometer
mb
20260509154803 52 124 3.0 1.0 0.00 0.00 0.00 52 1019.1
20260509153805 51 255 2.0 3.0 0.00 0.00 0.00 55 1018.9
20260509153306 51 143 3.0 1.0 0.00 0.00 0.00 54 1019.0
20260509152804 50 172 1.0 1.0 0.00 0.00 0.00 57 1018.9
20260509152306 50 132 2.0 0.0 0.00 0.00 0.00 57 1018.9
20260509151806 49 180 3.0 2.0 0.00 0.00 0.00 58 1018.9
20260509151307 49 104 4.0 0.0 0.00 0.00 0.00 56 1018.9
20260509150306 48 159 2.0 0.0 0.00 0.00 0.00 60 1018.9
20260509145806 47 205 2.0 1.0 0.00 0.00 0.00 61 1018.9
20260509145307 46 158 0.0 0.0 0.00 0.00 0.00 68 1018.9
20260509144808 45 183 3.0 3.0 0.00 0.00 0.00 69 1018.9
20260509144309 43 207 0.0 0.0 0.00 0.00 0.00 78 1019.0
20260509143807 41 94 1.0 1.0 0.00 0.00 0.00 79 1018.9
20260509143308 39 188 2.0 0.0 0.00 0.00 0.00 84 1018.9
20260509142809 37 177 2.0 2.0 0.00 0.00 0.00 89 1018.9
20260509142309 36 180 2.0 2.0 0.00 0.00 0.00 94 1018.9
20260509141810 35 252 2.0 2.0 0.00 0.00 0.00 96 1018.8
20260509141308 34 163 0.0 2.0 0.00 0.00 0.00 97 1018.8
20260509140809 33 236 0.0 0.0 0.00 0.00 0.00 97 1018.8
20260509140310 32 236 0.0 0.0 0.00 0.00 0.00 97 1018.6
20260509134810 31 236 0.0 0.0 0.00 0.00 0.00 97 1018.4
20260509134310 31 236 0.0 0.0 0.00 0.00 0.00 97 1018.4
20260509133811 30 236 0.0 0.0 0.00 0.00 0.00 97 1018.4
20260509132813 29 236 0.0 0.0 0.00 0.00 0.00 96 1018.4
20260509130814 29 236 0.0 0.0 0.00 0.00 0.00 96 1018.4
20260509130314 29 236 0.0 0.0 0.00 0.00 0.00 96 1018.4
20260509125813 29 236 0.0 0.0 0.00 0.00 0.00 96 1018.5
20260509125313 29 236 0.0 0.0 0.00 0.00 0.00 96 1018.5
20260509124814 29 236 0.0 0.0 0.00 0.00 0.00 96 1018.4
20260509123816 29 236 0.0 0.0 0.00 0.00 0.00 96 1018.5
20260509123314 29 236 0.0 0.0 0.00 0.00 0.00 96 1018.4
20260509122815 30 236 0.0 0.0 0.00 0.00 0.00 96 1018.4
20260509121817 30 236 0.0 0.0 0.00 0.00 0.00 96 1018.5
20260509120816 30 236 0.0 0.0 0.00 0.00 0.00 96 1018.6
20260509120317 30 236 0.0 0.0 0.00 0.00 0.00 96 1018.6
20260509115817 30 236 0.0 0.0 0.00 0.00 0.00 96 1018.8
20260509115318 30 236 0.0 0.0 0.00 0.00 0.00 96 1018.9
20260509114819 30 236 0.0 0.0 0.00 0.00 0.00 96 1018.9
20260509113818 30 236 0.0 0.0 0.00 0.00 0.00 95 1019.1
20260509112820 30 236 0.0 0.0 0.00 0.00 0.00 95 1019.4
20260509112321 31 236 0.0 0.0 0.00 0.00 0.00 95 1019.5
20260509111819 31 236 0.0 0.0 0.00 0.00 0.00 95 1019.5
20260509110821 31 236 0.0 0.0 0.00 0.00 0.00 95 1019.6
20260509110322 31 236 0.0 0.0 0.00 0.00 0.00 95 1019.6
20260509105823 31 236 0.0 0.0 0.00 0.00 0.00 95 1019.5
20260509105321 31 236 0.0 0.0 0.00 0.00 0.00 95 1019.6
20260509104822 31 236 0.0 0.0 0.00 0.00 0.00 95 1019.5
20260509104323 32 236 0.0 0.0 0.00 0.00 0.00 95 1019.5
20260509103325 32 236 0.0 0.0 0.00 0.00 0.00 94 1019.5
20260509102823 32 236 0.0 0.0 0.00 0.00 0.00 94 1019.5
20260509102324 32 236 0.0 0.0 0.00 0.00 0.00 93 1019.5
20260509101325 33 236 0.0 0.0 0.00 0.00 0.00 93 1019.5
20260509100324 33 236 0.0 0.0 0.00 0.00 0.00 93 1019.6
20260509095326 33 236 0.0 0.0 0.00 0.00 0.00 91 1019.7
20260509094827 33 236 0.0 0.0 0.00 0.00 0.00 91 1019.7
20260509094328 34 236 0.0 0.0 0.00 0.00 0.00 91 1019.8
20260509094008 34 236 0.0 0.0 0.00 0.00 0.00 91 1019.9
20260509093826 34 236 0.0 0.0 0.00 0.00 0.00 91 1019.9
20260509093327 34 236 0.0 0.0 0.00 0.00 0.00 91 1019.9
20260509092828 35 236 0.0 0.0 0.00 0.00 0.00 91 1020.1
20260509092329 35 236 0.0 0.0 0.00 0.00 0.00 91 1019.9
20260509091830 35 236 0.0 0.0 0.00 0.00 0.00 89 1020.1
20260509091328 35 236 0.0 0.0 0.00 0.00 0.00 89 1020.1
20260509090829 36 236 0.0 0.0 0.00 0.00 0.00 88 1020.2
20260509090329 36 236 0.0 0.0 0.00 0.00 0.00 88 1020.2
20260509085830 37 236 0.0 0.0 0.00 0.00 0.00 87 1020.3
20260509085331 37 236 0.0 0.0 0.00 0.00 0.00 87 1020.4
20260509084829 38 236 0.0 0.0 0.00 0.00 0.00 87 1020.4
20260509084330 38 236 0.0 0.0 0.00 0.00 0.00 87 1020.4
20260509083831 38 236 0.0 0.0 0.00 0.00 0.00 88 1020.4
20260509083332 38 236 0.0 0.0 0.00 0.00 0.00 87 1020.5
20260509082833 38 236 0.0 0.0 0.00 0.00 0.00 87 1020.5
20260509082331 39 236 0.0 0.0 0.00 0.00 0.00 87 1020.5
20260509081831 39 236 0.0 0.0 0.00 0.00 0.00 85 1020.5
20260509081332 40 259 0.0 0.0 0.00 0.00 0.00 85 1020.5
20260509080833 40 259 0.0 0.0 0.00 0.00 0.00 85 1020.5
20260509080334 40 259 0.0 0.0 0.00 0.00 0.00 86 1020.5
20260509075832 40 259 0.0 0.0 0.00 0.00 0.00 86 1020.5
20260509075538 40 259 0.0 0.0 0.00 0.00 0.00 86 1020.7
20260509075333 40 259 0.0 0.0 0.00 0.00 0.00 86 1020.7
20260509074834 40 259 0.0 0.0 0.00 0.00 0.00 86 1020.5
20260509074335 40 259 0.0 0.0 0.00 0.00 0.00 85 1020.5
20260509073836 40 259 0.0 0.0 0.00 0.00 0.00 85 1020.5
20260509073334 40 293 0.0 2.0 0.00 0.00 0.00 85 1020.4
20260509072835 40 266 1.0 1.0 0.00 0.00 0.00 85 1020.5
20260509072336 40 250 0.0 0.0 0.00 0.00 0.00 85 1020.5
20260509071837 40 274 1.0 2.0 0.00 0.00 0.00 85 1020.5
20260509071338 40 280 0.0 0.0 0.00 0.00 0.00 85 1020.5
20260509070836 40 287 2.0 5.0 0.00 0.00 0.00 85 1020.4
20260509070337 40 284 2.0 3.0 0.00 0.00 0.00 85 1020.4
20260509065838 40 298 3.0 1.0 0.00 0.00 0.00 85 1020.4
20260509065339 40 311 3.0 2.0 0.00 0.00 0.00 86 1020.4
20260509064840 40 314 3.0 2.0 0.00 0.00 0.00 86 1020.4
20260509064338 40 302 3.0 2.0 0.00 0.00 0.00 86 1020.5
20260509063839 40 305 2.0 2.0 0.00 0.00 0.00 86 1020.7
20260509063340 40 309 2.0 2.0 0.00 0.00 0.00 86 1020.7
20260509062841 40 295 2.0 2.0 0.00 0.00 0.00 85 1020.8
20260509062341 40 302 2.0 2.0 0.00 0.00 0.00 85 1020.9
20260509061840 40 301 2.0 2.0 0.00 0.00 0.00 85 1021.0
20260509061341 40 302 2.0 1.0 0.00 0.00 0.00 84 1021.0
20260509060841 40 321 2.0 2.0 0.00 0.00 0.00 84 1020.9
20260509060342 40 314 2.0 1.0 0.00 0.00 0.00 84 1020.9
20260509055843 40 316 2.0 2.0 0.00 0.00 0.00 84 1021.0
20260509055342 40 336 1.0 2.0 0.00 0.00 0.00 83 1021.1
20260509054843 40 312 1.0 1.0 0.00 0.00 0.00 83 1021.1
20260509053844 40 311 0.0 0.0 0.00 0.00 0.00 82 1021.1
20260509053345 40 311 0.0 0.0 0.00 0.00 0.00 81 1021.1
20260509052843 41 311 0.0 0.0 0.00 0.00 0.00 81 1021.1
20260509052344 41 309 0.0 1.0 0.00 0.00 0.00 80 1021.3
20260509051845 41 305 0.0 0.0 0.00 0.00 0.00 80 1021.3
20260509050847 42 298 0.0 0.0 0.00 0.00 0.00 80 1021.1
20260509045847 42 248 0.0 0.0 0.00 0.00 0.00 78 1021.3
20260509044905 43 248 0.0 0.0 0.00 0.00 0.00 77 1021.1
20260509044350 43 248 0.0 0.0 0.00 0.00 0.00 77 1021.1
20260509043848 43 248 0.0 0.0 0.00 0.00 0.00 77 1021.1
20260509043349 43 248 0.0 0.0 0.00 0.00 0.00 76 1021.1
20260509042850 44 248 0.0 0.0 0.00 0.00 0.00 76 1021.0
20260509041852 44 248 0.0 0.0 0.00 0.00 0.00 75 1021.1
20260509040851 45 233 0.0 0.0 0.00 0.00 0.00 73 1021.0
20260509034900 46 307 2.0 1.0 0.00 0.00 0.00 72 1020.9
20260509034354 46 248 1.0 0.0 0.00 0.00 0.00 72 1020.9
20260509033855 47 298 1.0 1.0 0.00 0.00 0.00 71 1020.9
20260509033356 47 325 4.0 4.0 0.00 0.00 0.00 70 1020.8
20260509032858 47 274 0.0 0.0 0.00 0.00 0.00 69 1020.8
20260509031856 48 259 1.0 0.0 0.00 0.00 0.00 67 1020.7
20260509031357 48 298 1.0 0.0 0.00 0.00 0.00 67 1020.7
20260509030858 49 281 1.0 0.0 0.00 0.00 0.00 66 1020.8
20260509030359 49 283 0.0 0.0 0.00 0.00 0.00 65 1020.7
20260509025912 49 290 3.0 2.0 0.00 0.00 0.00 64 1020.7
20260509025358 50 291 1.0 0.0 0.00 0.00 0.00 63 1020.7
20260509024900 50 283 1.0 6.0 0.00 0.00 0.00 63 1020.7
20260509023902 51 304 5.0 8.0 0.00 0.00 0.00 61 1020.5
20260509023400 51 312 5.0 3.0 0.00 0.00 0.00 60 1020.5
20260509022901 51 246 2.0 4.0 0.00 0.00 0.00 59 1020.5
20260509022402 51 301 2.0 0.0 0.00 0.00 0.00 59 1020.5
20260509021903 51 309 2.0 2.0 0.00 0.00 0.00 59 1020.5
20260509021404 52 277 3.0 1.0 0.00 0.00 0.00 58 1020.4
20260509020902 52 319 2.0 0.0 0.00 0.00 0.00 57 1020.4
20260509020403 52 315 3.0 3.0 0.00 0.00 0.00 57 1020.4
20260509015904 52 329 5.0 7.0 0.00 0.00 0.00 56 1020.4
20260509015405 52 326 2.0 0.0 0.00 0.00 0.00 55 1020.4
20260509014906 53 347 6.0 5.0 0.00 0.00 0.00 53 1020.4
20260509014405 53 240 6.0 3.0 0.00 0.00 0.00 53 1020.4
20260509013906 53 319 5.0 2.0 0.00 0.00 0.00 52 1020.3
20260509013407 54 342 6.0 8.0 0.00 0.00 0.00 51 1020.3
20260509012908 54 222 2.0 2.0 0.00 0.00 0.00 50 1020.3
20260509010909 56 302 7.0 4.0 0.00 0.00 0.00 48 1020.3
20260509005911 56 287 3.0 1.0 0.00 0.00 0.00 48 1020.3
20260509004910 57 321 6.0 5.0 0.00 0.00 0.00 47 1020.3
20260509004411 57 300 9.0 7.0 0.00 0.00 0.00 46 1020.3
20260509003913 57 315 6.0 7.0 0.00 0.00 0.00 46 1020.2
20260509003414 57 321 7.0 5.0 0.00 0.00 0.00 46 1020.2
20260509002413 58 7 5.0 3.0 0.00 0.00 0.00 47 1020.3
20260509001914 58 309 6.0 5.0 0.00 0.00 0.00 46 1020.2
20260509001415 57 283 6.0 1.0 0.00 0.00 0.00 47 1020.1
20260509000916 57 325 5.0 3.0 0.00 0.00 0.00 48 1020.1
20260509000415 57 300 8.0 12.0 0.00 0.00 0.00 46 1020.1
20260508235416 58 318 9.0 8.0 0.00 0.00 0.00 45 1020.1
20260508233917 58 308 6.0 7.0 0.00 0.00 0.00 44 1019.9
20260508233418 59 333 8.0 6.0 0.00 0.00 0.00 44 1019.8
20260508232919 59 0 10.0 8.0 0.00 0.00 0.00 42 1019.8
20260508232420 60 240 6.0 0.0 0.00 0.00 0.00 43 1019.8
20260508231419 60 285 5.0 1.0 0.00 0.00 0.00 42 1019.8
20260508230920 60 215 9.0 4.0 0.00 0.00 0.00 41 1019.8
20260508230421 60 335 6.0 6.0 0.00 0.00 0.00 41 1019.8
20260508225922 60 295 7.0 6.0 0.00 0.00 0.00 42 1019.7
20260508225424 59 290 7.0 4.0 0.00 0.00 0.00 42 1019.8
20260508224922 59 285 6.0 13.0 0.00 0.00 0.00 42 1019.7
20260508222926 59 307 10.0 7.0 0.00 0.00 0.00 39 1019.7
20260508222424 60 314 7.0 7.0 0.00 0.00 0.00 39 1019.8
20260508221925 60 312 7.0 4.0 0.00 0.00 0.00 39 1019.8
20260508221426 60 333 5.0 5.0 0.00 0.00 0.00 39 1019.7
20260508220927 60 293 9.0 10.0 0.00 0.00 0.00 38 1019.7
20260508215926 60 338 8.0 2.0 0.00 0.00 0.00 37 1019.7
20260508215427 61 281 10.0 7.0 0.00 0.00 0.00 36 1019.7
20260508214430 62 300 4.0 11.0 0.00 0.00 0.00 37 1019.7
20260508213931 62 1 5.0 4.0 0.00 0.00 0.00 38 1019.7
20260508213451 62 311 6.0 3.0 0.00 0.00 0.00 37 1019.7
20260508212930 62 290 2.0 2.0 0.00 0.00 0.00 38 1019.7
20260508212431 62 308 4.0 5.0 0.00 0.00 0.00 36 1019.8
20260508211932 62 318 5.0 3.0 0.00 0.00 0.00 37 1019.7
20260508211433 62 298 5.0 9.0 0.00 0.00 0.00 38 1019.7
20260508210931 62 262 3.0 3.0 0.00 0.00 0.00 39 1019.7
20260508210432 61 295 4.0 1.0 0.00 0.00 0.00 38 1019.7
20260508205933 61 298 4.0 1.0 0.00 0.00 0.00 38 1019.6
20260508205442 61 252 3.0 2.0 0.00 0.00 0.00 38 1019.7
20260508204935 61 276 5.0 8.0 0.00 0.00 0.00 39 1019.7
20260508204434 61 288 5.0 8.0 0.00 0.00 0.00 37 1019.5
20260508203934 62 264 8.0 8.0 0.00 0.00 0.00 37 1019.6
20260508203435 62 274 4.0 6.0 0.00 0.00 0.00 38 1019.5
20260508202936 62 224 6.0 4.0 0.00 0.00 0.00 38 1019.5
20260508202438 62 255 4.0 7.0 0.00 0.00 0.00 38 1019.5
20260508201936 62 236 3.0 4.0 0.00 0.00 0.00 39 1019.4
20260508201437 61 305 5.0 10.0 0.00 0.00 0.00 39 1019.4
20260508200938 61 273 7.0 4.0 0.00 0.00 0.00 38 1019.2
20260508200440 61 269 4.0 5.0 0.00 0.00 0.00 37 1019.1
20260508195943 61 290 6.0 1.0 0.00 0.00 0.00 38 1019.1
20260508194440 60 207 2.0 2.0 0.00 0.00 0.00 39 1019.1
20260508193442 59 319 3.0 5.0 0.00 0.00 0.00 39 1019.0
20260508191943 59 280 5.0 6.0 0.00 0.00 0.00 37 1018.9
20260508191444 59 301 7.0 6.0 0.00 0.00 0.00 38 1019.1
20260508190945 59 255 2.0 1.0 0.00 0.00 0.00 38 1018.6
20260508190443 58 238 4.0 2.0 0.00 0.00 0.00 38 1018.8
20260508185446 58 236 4.0 1.0 0.00 0.00 0.00 38 1018.8
20260508184947 58 288 2.0 6.0 0.00 0.00 0.00 39 1018.6
20260508184448 58 307 2.0 4.0 0.00 0.00 0.00 38 1018.6
20260508183946 57 278 6.0 7.0 0.00 0.00 0.00 40 1018.6
20260508183447 57 281 3.0 5.0 0.00 0.00 0.00 41 1018.6
20260508182948 57 274 8.0 4.0 0.00 0.00 0.00 39 1018.5
20260508182449 56 336 4.0 7.0 0.00 0.00 0.00 43 1018.5
20260508181950 56 270 7.0 4.0 0.00 0.00 0.00 42 1018.4
20260508181448 55 342 2.0 3.0 0.00 0.00 0.00 45 1018.4
20260508180949 55 290 4.0 3.0 0.00 0.00 0.00 44 1018.3
20260508180450 55 274 6.0 8.0 0.00 0.00 0.00 40 1018.3
20260508175951 55 233 7.0 2.0 0.00 0.00 0.00 44 1018.2
20260508174950 54 297 4.0 5.0 0.00 0.00 0.00 46 1018.1
20260508174451 54 281 4.0 10.0 0.00 0.00 0.00 47 1017.9
20260508173952 53 252 3.0 2.0 0.00 0.00 0.00 51 1017.8
20260508173453 53 291 7.0 6.0 0.00 0.00 0.00 50 1017.9
20260508172954 53 285 5.0 4.0 0.00 0.00 0.00 50 1017.8
20260508172452 53 248 3.0 1.0 0.00 0.00 0.00 50 1017.8
20260508171953 52 283 5.0 6.0 0.00 0.00 0.00 54 1017.7
20260508171454 51 240 2.0 2.0 0.00 0.00 0.00 59 1017.5
20260508170955 50 269 1.0 3.0 0.00 0.00 0.00 61 1017.3
20260508170456 50 309 3.0 2.0 0.00 0.00 0.00 62 1017.3
20260508165954 49 217 3.0 3.0 0.00 0.00 0.00 64 1017.5
20260508164956 47 276 7.0 4.0 0.00 0.00 0.00 67 1017.6
20260508164509 46 302 4.0 4.0 0.00 0.00 0.00 69 1017.7
20260508163456 46 314 6.0 5.0 0.00 0.00 0.00 75 1017.8
20260508162957 46 280 1.0 1.0 0.00 0.00 0.00 76 1017.7
20260508162458 46 301 1.0 2.0 0.00 0.00 0.00 75 1017.7
20260508161500 46 304 0.0 4.0 0.00 0.00 0.00 75 1017.8
20260508160958 46 273 2.0 1.0 0.00 0.00 0.00 76 1017.8
20260508160459 46 312 2.0 2.0 0.00 0.00 0.00 75 1017.8
20260508160000 46 233 2.0 0.0 0.00 0.00 0.00 75 1017.8
20260508155501 46 309 3.0 3.0 0.00 0.00 0.00 76 1017.8